User: anonymous   Login
Location: *
(43.9905°S, 176.4941°W)
Time: 01:35:53
(UTC+00:00)
Language:

Cosmos 1470 - Orbit

View from above orbital plane
View from above orbital plane
View from above satellite
View from above satellite

Ground track
Ground track

The orbit data is extracted from the following two-line orbital elements,

1 14147U 83061A   20047.57085269 +.00000080 +00000-0 +28525-5 0  9995
2 14147 082.4871 161.6121 0016307 146.8620 213.3636 15.11336251751679
Epoch (UTC): 16 February 2020 13:42:01
Eccentricity: 0.0016307
inclination: 82.4871°
perigee height: 521 km
apogee height: 543 km
right ascension of ascending node: 161.6121°
argument of perigee: 146.8620°
revolutions per day: 15.11336251
mean anomaly at epoch: 213.3636°
orbit number at epoch: 75167

The dashed part of the orbit path shows where the satellite is in the earth's shadow,  

DLR